Lid_Strength_Index
1 1 0 0 -0 0 1 1 2 2 3 4 5 6 5 6 7 10 12 11 12 15 15 14 14 17 16 17 21 19 19 19 22 25 24 24 24 23 24 22 22 23 29 28 27 30 25 14 13 15 11 8 7 7
1 1 1 1 0 0 1 1 2 2 3 4 5 5 6 6 6 8 12 10 10 13 14 13 13 14 15 16 17 19 18 19 19 22 23 22 23 23 23 25 20 24 21 25 22 21 15 13 11 9 7 8 7 8
1 1 1 1 1 0 1 1 2 3 4 4 5 5 6 7 7 9 12 11 11 14 15 15 15 14 14 15 14 19 19 17 18 17 21 22 24 22 26 23 22 20 17 20 20 17 14 11 10 7 6 7 6 6
1 1 1 2 1 1 1 1 2 3 4 5 5 6 6 6 7 9 13 12 11 14 18 17 13 16 14 14 13 14 15 15 16 19 23 24 24 20 22 20 20 18 18 18 18 16 12 10 9 7 6 6 6 6
1 1 1 2 1 1 1 2 3 4 5 5 6 5 7 7 8 10 11 12 12 14 18 17 15 15 15 14 14 14 15 17 20 21 23 23 20 20 19 19 20 17 18 19 20 14 14 12 8 6 7 7 6 6
2 1 2 2 2 1 1 2 3 4 5 5 5 6 7 7 8 12 14 13 12 13 16 19 18 17 16 15 15 16 16 19 20 20 21 19 17 19 23 22 17 15 14 14 15 12 11 9 7 6 6 6 6 6
2 1 1 2 2 2 2 3 4 4 5 6 6 6 7 9 11 13 14 12 11 11 16 21 21 19 16 16 16 17 17 19 19 21 20 19 18 18 22 22 16 14 13 13 12 11 11 9 8 6 5 6 6 7
2 1 1 1 1 2 3 4 4 5 6 6 7 8 8 9 10 13 12 10 10 14 15 20 23 20 17 20 21 18 20 20 20 21 20 19 18 20 23 16 14 13 13 13 11 11 10 9 6 6 6 7 7 7
2 2 2 2 2 3 4 5 5 6 6 7 8 8 10 12 14 14 10 11 11 14 18 20 22 22 17 19 19 18 18 24 20 22 21 18 21 23 18 16 15 14 14 13 11 10 9 8 7 6 7 8 8 7
2 2 2 3 3 4 5 5 6 7 7 7 9 13 16 13 9 10 14 16 17 17 18 21 19 21 18 18 20 21 21 23 26 20 17 22 20 15 14 13 14 13 12 11 12 11 9 8 7 7 8 8 7 7
2 2 3 4 5 5 6 6 7 8 8 11 14 16 13 11 13 15 19 19 19 23 21 19 19 20 17 19 20 19 23 25 27 20 22 21 21 16 14 13 13 12 12 11 10 8 7 6 6 7 7 7 7 7
2 3 4 5 6 7 7 7 7 11 12 12 13 13 14 15 17 20 21 21 22 22 20 19 19 18 18 16 19 20 23 23 25 17 22 21 18 15 13 13 13 12 11 10 8 7 6 5 6 7 7 7 7 6
3 4 6 7 7 8 8 8 10 9 10 12 14 16 17 18 21 22 26 24 22 19 19 18 19 18 17 17 19 19 24 22 17 22 21 19 15 14 13 12 12 11 10 9 8 6 5 5 5 6 7 7 7 7
5 6 7 8 8 9 9 10 10 11 14 16 18 21 19 22 21 21 21 20 18 18 18 17 18 18 17 19 19 21 20 19 23 24 21 17 16 14 13 12 11 11 9 9 8 6 6 5 6 6 7 7 7 7
7 7 8 9 9 9 10 10 12 13 16 18 18 23 21 20 19 19 18 18 17 16 16 17 17 17 19 20 19 20 23 25 23 20 17 16 14 13 13 11 11 11 9 8 8 7 7 7 7 8 7 7 7 7
9 10 11 10 10 10 11 13 14 15 17 19 20 22 20 20 20 18 18 18 16 16 16 16 19 21 22 20 22 20 22 22 21 17 15 14 13 13 12 11 10 9 8 8 7 7 7 7 7 8 7 7 7 7
10 13 10 11 11 12 12 14 16 18 19 21 21 18 19 18 19 18 17 16 14 16 19 19 22 22 19 22 21 17 19 17 15 14 13 12 12 11 10 10 9 8 8 7 7 7 7 6 6 8 8 7 7 7
14 12 11 11 13 13 15 15 17 19 21 19 20 18 18 17 17 17 16 15 15 15 16 19 17 21 21 22 19 16 16 15 14 14 13 12 11 10 9 9 8 8 8 7 7 8 7 7 7 8 8 7 7 7
12 12 11 12 13 16 18 18 17 21 20 19 18 17 17 17 15 14 14 14 14 13 15 18 19 20 18 16 16 15 15 14 14 13 12 11 11 10 9 8 8 8 7 7 7 7 7 7 7 7 7 7 7 7
10 10 10 11 12 17 19 18 15 18 19 18 17 17 17 17 15 15 14 14 14 16 19 20 18 15 16 15 14 14 13 13 13 13 13 11 10 9 9 9 8 8 7 6 6 5 7 7 6 6 7 6 7 8
11 12 11 13 15 15 16 18 18 16 16 17 16 16 17 15 16 16 16 14 16 18 16 15 15 13 12 12 11 12 12 11 12 12 11 11 9 9 8 7 7 8 7 7 7 7 7 8 7 6 7 7 7 7
11 9 12 11 15 15 16 15 16 15 16 16 16 15 16 17 16 15 15 15 15 15 14 14 13 12 12 12 11 10 10 10 10 9 6 7 9 9 8 7 7 7 7 7 7 8 8 8 7 6 7 7 6 7
9 11 13 15 17 17 18 14 17 15 18 18 16 17 17 16 15 14 15 14 14 12 12 11 11 10 11 10 9 9 9 9 10 10 9 8 8 7 7 6 6 7 7 6 6 7 7 5 6 6 6 7 7 8
10 15 17 18 18 19 18 19 15 16 16 17 18 19 17 16 14 15 15 14 13 12 11 11 10 10 10 9 10 9 8 8 8 8 8 8 8 7 6 6 6 6 5 5 6 6 6 6 4 6 6 7 8 8
16 18 18 19 17 19 19 20 18 17 19 17 19 19 17 14 16 15 14 13 12 11 10 9 9 9 10 10 9 8 6 7 7 8 7 6 6 6 6 6 6 5 5 6 6 6 6 6 5 6 6 7 8 8
19 19 19 19 17 17 17 19 18 17 16 19 16 14 13 15 17 16 12 11 11 10 9 9 9 10 10 9 9 8 7 6 6 7 6 5 5 6 7 7 7 6 5 5 6 5 6 6 5 6 7 7 5 8
20 20 15 13 13 14 15 14 14 15 16 18 15 16 16 19 16 12 10 9 9 9 8 8 8 8 8 8 7 6 6 6 6 6 5 5 5 5 5 6 7 5 4 5 4 4 5 5 6 6 7 7 8 8
15 13 15 14 13 13 16 17 16 15 14 13 12 16 16 15 13 10 9 8 7 7 7 7 6 7 7 7 6 6 6 6 5 5 6 6 5 5 6 5 5 1 4 4 4 4 5 5 6 6 6 7 7 7
13 12 13 18 14 14 15 14 14 12 11 11 13 13 11 10 9 8 8 8 7 7 8 8 7 7 7 7 7 6 6 7 7 8 8 8 8 6 6 6 5 5 4 4 1 3 4 5 6 6 6 7 7 7
13 12 15 16 20 17 13 12 12 11 10 10 10 10 9 9 8 7 7 8 8 8 7 7 8 8 8 8 8 7 6 6 6 7 8 8 7 5 6 6 5 5 5 5 5 4 1 4 3 5 6 6 7 7
12 12 15 14 16 13 12 10 10 9 10 11 11 10 10 9 8 8 7 7 7 8 8 8 8 8 8 8 8 8 8 6 5 5 5 6 5 5 5 5 5 5 5 5 5 5 5 6 6 6 6 6 6 6
12 14 14 19 17 13 12 11 11 11 11 11 11 11 10 10 11 9 8 8 8 8 7 7 8 8 7 7 6 6 3 6 6 5 5 5 5 5 5 5 4 4 5 5 5 5 5 5 5 6 6 5 6 6
14 12 13 14 17 15 13 13 13 14 13 13 12 10 10 10 11 8 8 8 8 8 8 8 8 7 7 7 7 7 4 6 5 3 2 2 2 4 5 5 4 4 5 5 5 5 5 5 5 6 6 6 6 6